Temp
-2 -3 -3 -3 -2 -2 -2 -2 -2 -1 -1 -0 -0 -0 -0 0 0 1 2 2 3 3 2 3 4 4 4 6 8 8 9 10 12 13 15 17 18 18 18 18 17 17 18 19 19 19 20 19 18 18 18 17 17 17
-3 -3 -3 -3 -3 -3 -3 -2 -2 -2 -1 -1 -1 -1 -1 -0 0 0 0 1 2 2 1 3 5 5 6 5 5 6 7 9 9 12 14 16 17 17 18 18 17 17 18 19 19 19 19 18 18 18 18 17 16 16
-3 -3 -3 -4 -3 -3 -3 -3 -2 -2 -2 -2 -1 -1 -1 -1 -0 -0 0 1 1 2 2 3 4 4 5 6 6 8 6 6 8 10 10 11 12 14 17 18 17 17 18 19 19 18 18 18 18 17 17 17 16 15
-3 -3 -3 -3 -4 -4 -3 -3 -3 -3 -3 -3 -2 -2 -1 -1 -1 -0 -0 0 0 1 1 3 1 3 5 5 6 6 4 6 5 9 8 10 12 13 16 17 17 18 17 18 17 17 17 17 17 17 17 16 15 15
-3 -3 -3 -4 -4 -4 -4 -4 -4 -4 -4 -4 -3 -2 -2 -2 -1 -1 -0 -0 0 0 -0 1 1 2 4 4 5 6 6 6 7 7 8 9 11 11 12 14 16 16 17 17 17 17 17 17 17 16 16 16 15 15
-3 -3 -4 -4 -5 -5 -5 -5 -5 -5 -5 -4 -4 -3 -3 -2 -1 -1 -2 -1 -0 -0 0 0 1 1 2 3 5 5 5 6 6 5 6 8 10 9 12 14 15 17 17 16 17 17 17 16 17 16 15 14 15 15
-3 -4 -5 -5 -5 -6 -6 -6 -6 -6 -6 -6 -6 -4 -4 -3 -2 -1 -2 -1 -1 -0 -0 -1 2 2 1 2 2 3 4 3 3 4 5 7 9 8 10 13 15 16 16 15 16 15 16 16 17 15 14 13 14 15
-4 -5 -5 -6 -7 -7 -7 -7 -7 -7 -7 -6 -5 -4 -4 -4 -3 -4 -2 -2 -1 -1 -1 -1 1 1 1 2 3 3 3 3 3 4 4 6 8 8 9 11 13 15 15 14 16 15 15 15 14 14 13 14 15 15
-4 -5 -6 -6 -7 -8 -8 -8 -7 -6 -6 -5 -4 -4 -4 -4 -4 -3 -3 -2 -2 -2 -1 -2 2 4 2 3 3 3 3 4 4 4 4 6 8 9 9 10 12 13 13 13 14 15 15 14 13 12 13 14 15 14
-4 -5 -6 -6 -7 -7 -7 -7 -8 -8 -7 -5 -5 -5 -6 -5 -4 -3 -4 -4 -4 -3 -2 1 -1 1 2 3 4 3 3 4 5 5 5 6 8 9 9 9 10 12 12 14 13 13 13 13 12 14 13 14 14 13
-4 -5 -6 -6 -6 -6 -6 -7 -7 -7 -7 -7 -7 -6 -6 -5 -5 -4 -4 -4 -4 -3 -2 0 1 0 1 2 3 4 4 4 5 5 6 7 7 8 8 8 9 12 13 14 14 13 13 14 13 12 12 14 13 13
-3 -4 -5 -5 -6 -6 -6 -6 -6 -7 -7 -7 -6 -5 -5 -5 -4 -4 -4 -3 -3 -2 -0 -1 -1 1 0 0 1 2 3 4 5 7 7 7 8 8 8 8 10 12 13 14 12 12 11 10 10 10 14 13 12 12
-3 -3 -4 -4 -5 -5 -5 -6 -6 -6 -5 -6 -6 -6 -5 -5 -4 -4 -4 -3 -2 -1 -1 -1 -1 -0 -1 -0 1 2 3 4 5 6 7 7 8 8 8 9 9 12 13 12 11 11 10 9 10 13 12 12 12 11
-3 -3 -3 -4 -4 -4 -4 -4 -4 -5 -5 -6 -6 -5 -5 -5 -4 -3 -3 -2 -2 -2 -1 -2 -2 -1 0 0 1 2 3 5 5 6 7 7 8 8 8 9 10 11 12 10 10 9 9 12 12 12 11 11 11 10
-3 -4 -4 -4 -4 -4 -4 -4 -4 -4 -5 -6 -6 -5 -4 -4 -4 -4 -4 -3 -3 -3 -3 -1 -1 -1 -0 0 1 2 3 4 6 6 7 7 8 8 9 9 10 9 9 9 9 12 12 12 11 11 11 11 10 9
-3 -3 -3 -4 -4 -4 -4 -4 -5 -5 -5 -5 -5 -4 -3 -3 -3 -3 -3 -3 -3 -3 -3 -2 -2 -1 -0 1 1 2 3 6 7 7 7 7 7 7 8 9 10 8 8 10 11 11 11 10 10 11 10 10 9 9
-3 -3 -3 -4 -4 -4 -4 -4 -5 -5 -5 -5 -3 -3 -4 -3 -3 -3 -3 -2 -2 -2 -3 -3 -2 -0 0 1 1 2 2 4 5 6 7 8 8 8 8 8 9 10 9 9 10 10 10 10 10 10 9 9 8 8
-4 -4 -4 -4 -4 -3 -3 -3 -4 -4 -3 -3 -3 -2 -2 -1 -1 -1 -1 -2 -2 -2 -2 -2 -1 -0 0 2 2 3 2 4 5 5 7 7 7 8 8 8 8 9 9 10 10 10 10 9 9 9 8 8 8 7
-3 -3 -3 -3 -3 -3 -3 -3 -3 -3 -2 -1 -1 -1 -1 -0 0 -1 -1 0 -1 -1 -1 -1 -1 -0 1 1 2 2 3 5 5 5 6 6 6 7 7 8 8 9 9 9 9 9 8 8 8 8 7 7 7 7
-2 -2 -3 -3 -3 -2 -2 -2 -2 -1 -1 -1 -0 -1 -0 -0 -0 -0 -0 -0 0 0 -0 -0 0 0 1 2 2 3 4 6 5 5 6 6 6 6 7 7 8 8 8 8 8 7 7 7 6 6 6 6 6 6
-1 -1 -2 -2 -2 -1 -2 -1 -1 -1 -1 -1 -0 -0 0 -0 0 0 0 -0 -0 -0 -0 -0 0 0 1 1 2 4 3 5 5 4 6 6 6 6 7 7 7 6 7 7 6 6 6 6 6 4 6 6 6 6
-1 -1 -1 -1 -1 -1 -1 -1 -1 -1 -1 -1 -1 -0 -0 0 0 0 0 -0 0 0 1 0 0 3 3 3 4 4 5 6 5 5 6 5 6 5 5 5 5 5 5 5 5 5 5 4 4 4 5 5 5 5
-0 -0 -0 0 -1 -1 -1 -1 -0 -1 -1 -0 -0 -0 0 0 1 0 1 0 1 0 1 2 2 3 4 4 5 5 5 6 6 6 6 5 5 5 5 5 5 4 4 5 5 4 5 4 4 5 5 5 5 5
-0 -0 -0 -1 -0 -1 -1 -0 -0 -0 -0 -0 -0 0 -0 0 1 1 0 1 2 2 2 3 3 3 3 4 4 5 5 5 5 5 5 5 5 4 4 4 4 4 4 5 5 4 3 4 4 4 4 4 4 4
-1 -1 -1 -1 -1 -1 -0 -0 0 -0 -0 -0 0 0 0 1 1 0 1 2 3 2 3 3 3 3 3 4 4 4 4 4 4 4 4 4 4 4 4 4 5 4 3 3 3 4 4 4 4 4 3 3 3 3
-0 -0 -1 -0 -0 -0 -0 -0 -0 -0 0 0 0 1 1 1 1 1 1 2 2 3 2 3 3 3 3 3 3 3 3 3 3 3 3 3 3 4 4 3 3 2 2 2 2 3 3 3 3 3 3 3 3 3
-0 -0 -0 -0 -0 -0 -0 0 0 0 0 0 0 1 1 1 1 1 1 2 2 3 3 3 3 3 3 2 3 3 3 2 2 3 2 1 1 1 1 1 2 2 2 2 2 2 3 3 3 3 3 3 3 2
-0 0 0 0 -0 -0 0 0 0 0 0 1 1 1 1 1 1 1 1 2 2 2 2 2 2 1 1 1 2 2 3 3 3 3 2 0 0 -0 -1 1 2 2 2 2 2 2 3 3 3 2 2 2 2 1
0 0 0 0 0 1 1 0 0 0 0 0 1 1 1 1 1 1 1 1 1 1 1 1 1 1 1 2 2 1 1 1 1 1 1 0 0 1 2 2 2 2 2 2 2 2 2 2 2 1 0 -1 -0 1
0 0 0 0 -0 -0 -0 0 -0 0 0 0 0 1 1 1 1 1 1 1 1 1 1 2 2 1 2 1 2 1 1 1 1 1 0 -0 1 0 1 1 1 1 2 2 2 2 2 2 2 1 1 1 1 0
0 0 0 0 0 -0 0 -0 -0 -0 -0 -0 -0 -0 -0 1 1 1 1 1 1 1 1 1 2 2 2 2 2 1 1 1 1 0 0 0 -0 1 1 1 1 0 2 2 2 2 2 2 2 1 1 -0 -2 -1
0 0 0 0 0 0 0 0 -0 0 0 -0 0 1 1 0 0 1 1 1 1 1 1 1 2 1 1 1 1 1 1 0 1 1 0 -0 1 1 2 1 1 1 2 1 1 0 1 1 -1 -2 -2 -1 -0 -2
-0 -0 0 1 0 0 0 1 1 1 1 1 1 1 1 1 1 2 2 1 0 1 0 0 0 0 1 1 1 1 0 1 1 1 1 1 1 1 1 0 0 1 1 0 -1 -1 1 0 -2 -1 -0 -2 -2 -2
Height
3067 3064 3062 3060 3058 3055 3053 3051 3049 3047 3047 3046 3046 3047 3047 3049 3051 3053 3055 3057 3060 3063 3069 3069 3074 3078 3083 3088 3094 3091 3098 3100 3107 3110 3111 3110 3110 3113 3118 3122 3127 3132 3138 3139 3143 3145 3147 3147 3154 3161 3162 3161 3165 3170
3061 3059 3057 3055 3052 3048 3046 3045 3042 3041 3040 3041 3042 3042 3043 3044 3047 3049 3051 3053 3055 3059 3061 3059 3067 3072 3077 3078 3082 3089 3093 3095 3099 3106 3109 3109 3108 3110 3114 3116 3123 3129 3132 3136 3140 3141 3143 3147 3152 3157 3159 3162 3165 3169
3057 3054 3051 3049 3046 3043 3040 3038 3037 3036 3035 3037 3037 3038 3039 3040 3042 3045 3047 3050 3052 3056 3059 3061 3064 3069 3071 3076 3081 3087 3092 3092 3097 3097 3101 3106 3107 3109 3111 3113 3119 3125 3127 3130 3136 3138 3141 3144 3150 3155 3158 3161 3164 3167
3051 3048 3045 3042 3039 3037 3035 3033 3032 3030 3030 3031 3033 3034 3036 3037 3038 3041 3043 3046 3050 3053 3057 3063 3059 3061 3065 3070 3076 3082 3080 3087 3090 3095 3099 3106 3111 3111 3112 3113 3116 3119 3125 3129 3131 3133 3139 3144 3148 3152 3155 3158 3161 3163
3046 3042 3038 3035 3033 3031 3029 3027 3027 3027 3028 3027 3028 3030 3032 3034 3036 3038 3041 3044 3046 3052 3053 3055 3055 3058 3060 3065 3071 3076 3079 3084 3088 3093 3098 3103 3107 3109 3110 3111 3113 3118 3122 3126 3130 3134 3138 3141 3144 3147 3150 3152 3156 3157
3041 3037 3033 3030 3028 3027 3025 3024 3024 3024 3024 3025 3025 3026 3028 3031 3033 3036 3040 3041 3043 3046 3050 3055 3056 3055 3059 3061 3066 3070 3075 3080 3084 3089 3094 3098 3104 3104 3107 3109 3114 3118 3122 3126 3130 3131 3134 3138 3140 3143 3146 3149 3150 3152
3037 3033 3030 3027 3025 3024 3022 3022 3021 3021 3022 3022 3023 3024 3026 3027 3030 3032 3035 3038 3040 3043 3047 3052 3054 3054 3056 3060 3064 3067 3071 3076 3081 3085 3087 3094 3100 3098 3102 3105 3112 3117 3120 3122 3124 3128 3131 3133 3135 3139 3142 3144 3146 3147
3034 3031 3028 3026 3024 3023 3021 3020 3020 3020 3020 3020 3020 3021 3024 3025 3028 3032 3033 3035 3038 3041 3045 3050 3053 3054 3054 3059 3063 3067 3070 3073 3076 3079 3083 3089 3094 3095 3095 3100 3106 3112 3115 3116 3121 3126 3129 3130 3132 3134 3137 3138 3140 3142
3033 3030 3027 3025 3023 3022 3021 3020 3018 3018 3018 3018 3018 3019 3021 3024 3027 3027 3031 3034 3037 3043 3042 3045 3051 3054 3054 3058 3062 3065 3068 3070 3074 3075 3078 3086 3086 3085 3089 3094 3101 3107 3109 3112 3117 3122 3124 3125 3127 3130 3131 3132 3135 3139
3032 3029 3027 3025 3023 3022 3021 3019 3018 3017 3017 3017 3018 3020 3021 3023 3026 3029 3032 3034 3036 3037 3039 3042 3045 3050 3054 3057 3060 3063 3063 3067 3068 3069 3076 3075 3075 3081 3086 3089 3093 3096 3100 3106 3111 3116 3119 3122 3123 3123 3126 3127 3132 3136
3033 3029 3026 3024 3022 3021 3020 3018 3018 3017 3017 3018 3019 3020 3023 3024 3027 3030 3033 3036 3037 3037 3035 3038 3042 3047 3050 3053 3056 3059 3061 3061 3061 3064 3065 3065 3065 3069 3077 3082 3085 3090 3096 3101 3106 3113 3114 3116 3115 3118 3121 3125 3129 3132
3032 3029 3026 3024 3022 3020 3019 3018 3017 3018 3018 3019 3020 3021 3023 3027 3029 3031 3033 3035 3035 3037 3038 3038 3040 3041 3047 3048 3049 3052 3056 3056 3052 3056 3056 3052 3057 3065 3069 3073 3078 3084 3090 3095 3100 3107 3109 3111 3114 3114 3117 3121 3125 3128
3034 3031 3028 3025 3023 3020 3019 3018 3017 3017 3018 3020 3023 3024 3026 3027 3027 3027 3028 3029 3032 3032 3031 3034 3037 3040 3043 3046 3049 3049 3050 3049 3050 3047 3043 3048 3054 3058 3062 3066 3072 3077 3084 3089 3096 3100 3103 3106 3106 3110 3115 3119 3122 3125
3035 3032 3029 3026 3023 3021 3019 3018 3018 3018 3019 3021 3023 3023 3023 3022 3022 3024 3024 3028 3027 3028 3029 3031 3034 3036 3041 3044 3046 3046 3046 3046 3041 3039 3040 3045 3047 3051 3055 3059 3065 3071 3077 3084 3090 3091 3095 3098 3102 3108 3112 3115 3118 3121
3037 3034 3031 3028 3026 3023 3021 3019 3018 3017 3019 3020 3021 3018 3015 3018 3018 3018 3019 3021 3024 3025 3026 3028 3031 3033 3036 3038 3039 3041 3039 3034 3032 3035 3038 3040 3042 3045 3048 3053 3060 3067 3074 3078 3081 3085 3089 3094 3100 3105 3108 3112 3115 3117
3039 3036 3032 3029 3026 3023 3020 3018 3018 3018 3017 3017 3014 3011 3010 3011 3012 3013 3014 3016 3019 3019 3022 3026 3028 3030 3029 3031 3029 3028 3028 3026 3031 3033 3034 3037 3038 3041 3044 3049 3056 3061 3067 3071 3077 3081 3087 3093 3097 3101 3105 3109 3111 3114
3038 3035 3032 3029 3026 3022 3019 3017 3015 3014 3012 3011 3006 3004 3004 3003 3003 3004 3004 3007 3011 3013 3016 3020 3022 3022 3023 3021 3018 3018 3020 3024 3023 3024 3027 3033 3033 3037 3041 3046 3051 3056 3062 3067 3074 3080 3085 3090 3095 3098 3102 3105 3108 3111
3038 3034 3032 3029 3024 3020 3017 3015 3013 3011 3008 3006 3003 3000 2997 2995 2992 2995 2997 2998 3001 3005 3010 3011 3015 3014 3014 3011 3012 3017 3017 3019 3021 3021 3023 3025 3029 3035 3040 3045 3048 3053 3059 3067 3073 3078 3082 3087 3091 3095 3099 3102 3105 3108
3038 3034 3030 3028 3025 3020 3016 3014 3013 3009 3006 3004 3003 3001 3000 2998 2999 2999 2998 3000 3001 3004 3006 3007 3007 3005 3005 3004 3006 3009 3011 3015 3017 3018 3021 3024 3027 3031 3035 3040 3047 3053 3059 3066 3072 3076 3080 3085 3089 3093 3097 3100 3102 3104
3037 3033 3030 3028 3025 3022 3018 3015 3013 3010 3007 3006 3004 3002 3000 3000 3000 2999 2997 2999 3000 2999 3001 3000 2999 2999 2998 2999 3000 3004 3004 3009 3012 3014 3016 3020 3024 3028 3033 3039 3045 3052 3058 3063 3070 3074 3078 3081 3085 3091 3094 3097 3099 3100
3037 3034 3030 3028 3025 3024 3021 3018 3015 3012 3009 3007 3005 3003 3003 3001 2999 2999 2999 2998 2998 2997 2997 2994 2989 2983 2990 2991 2994 2998 3002 3006 3008 3012 3015 3019 3023 3028 3032 3038 3043 3044 3051 3059 3065 3070 3075 3079 3082 3087 3092 3094 3096 3097
3036 3033 3030 3028 3025 3024 3022 3019 3015 3013 3010 3008 3006 3004 3002 3002 3003 3001 3000 2998 2997 2995 2992 2988 2986 2982 2984 2989 2994 2999 3003 3005 3008 3011 3016 3021 3025 3031 3036 3040 3045 3046 3052 3059 3064 3069 3073 3076 3081 3086 3089 3090 3092 3094
3034 3032 3030 3028 3025 3024 3023 3019 3015 3013 3011 3009 3008 3006 3005 3004 3003 3002 3001 2998 2996 2994 2992 2991 2990 2992 2994 2996 2999 3002 3005 3008 3011 3014 3019 3024 3029 3033 3037 3041 3046 3051 3055 3060 3063 3067 3070 3076 3079 3084 3086 3088 3089 3091
3033 3032 3030 3028 3026 3025 3023 3020 3017 3014 3012 3010 3009 3008 3008 3007 3006 3003 3002 3001 2999 2996 2992 2992 2996 2998 3000 3003 3005 3007 3010 3013 3015 3018 3022 3025 3029 3034 3038 3041 3046 3050 3053 3056 3060 3065 3070 3075 3080 3082 3084 3085 3087 3087
3035 3034 3032 3030 3028 3026 3022 3020 3018 3015 3013 3011 3011 3010 3009 3009 3008 3005 3004 3003 3001 3001 3001 3000 3000 3003 3006 3008 3011 3013 3016 3018 3021 3024 3026 3030 3033 3035 3038 3042 3046 3048 3053 3058 3062 3067 3072 3075 3077 3079 3080 3082 3084 3085
3035 3034 3033 3030 3029 3026 3024 3021 3019 3016 3014 3013 3013 3012 3012 3011 3011 3010 3009 3008 3006 3006 3005 3005 3006 3009 3007 3012 3016 3019 3022 3025 3026 3027 3030 3031 3034 3035 3041 3044 3048 3051 3052 3058 3063 3067 3069 3072 3074 3077 3079 3080 3082 3083
3035 3034 3033 3032 3030 3028 3025 3023 3021 3019 3017 3016 3015 3015 3013 3014 3015 3016 3015 3013 3012 3010 3010 3008 3009 3009 3014 3019 3023 3026 3029 3031 3035 3037 3037 3039 3041 3044 3045 3044 3048 3055 3058 3061 3065 3068 3069 3071 3074 3076 3077 3079 3081 3082
3036 3035 3034 3034 3031 3029 3027 3024 3022 3021 3021 3019 3019 3018 3017 3017 3018 3018 3019 3018 3016 3017 3018 3018 3019 3021 3018 3022 3029 3032 3035 3038 3041 3044 3045 3047 3049 3051 3053 3054 3056 3058 3060 3063 3065 3067 3070 3072 3073 3074 3076 3077 3078 3079
3036 3036 3035 3034 3032 3031 3030 3028 3026 3025 3024 3023 3023 3022 3022 3022 3022 3022 3023 3023 3024 3024 3026 3027 3028 3031 3033 3033 3037 3039 3041 3044 3047 3049 3051 3053 3054 3056 3057 3058 3060 3061 3062 3064 3066 3068 3069 3070 3071 3072 3074 3076 3077 3078
3037 3036 3036 3035 3034 3034 3033 3032 3031 3030 3030 3029 3027 3028 3027 3027 3027 3025 3025 3027 3029 3031 3033 3034 3035 3038 3040 3043 3044 3045 3048 3051 3053 3054 3055 3057 3056 3057 3058 3059 3060 3061 3062 3064 3065 3066 3067 3068 3070 3072 3073 3075 3075 3076
3037 3037 3037 3036 3035 3035 3036 3036 3035 3035 3035 3036 3035 3035 3033 3032 3033 3031 3033 3032 3033 3035 3037 3040 3040 3041 3045 3046 3049 3050 3052 3054 3054 3056 3060 3058 3058 3058 3059 3060 3061 3062 3062 3063 3064 3065 3066 3068 3069 3070 3070 3071 3073 3074
3037 3037 3038 3037 3037 3037 3038 3038 3040 3040 3041 3040 3041 3041 3042 3041 3039 3038 3039 3039 3039 3041 3043 3044 3045 3047 3047 3049 3051 3053 3054 3055 3056 3056 3058 3059 3058 3058 3059 3060 3061 3061 3062 3063 3063 3063 3063 3064 3066 3067 3069 3068 3069 3070
3038 3039 3039 3040 3040 3041 3042 3043 3044 3044 3045 3045 3045 3046 3046 3046 3044 3044 3044 3044 3046 3047 3047 3049 3049 3050 3050 3052 3053 3054 3055 3055 3056 3056 3057 3057 3057 3058 3058 3059 3059 3059 3060 3060 3061 3062 3061 3062 3064 3064 3065 3066 3066 3066
Wind_Speed
20 21 23 22 22 21 23 24 23 21 18 16 13 12 12 13 14 15 17 19 23 27 13 21 27 20 9 11 11 14 13 16 12 17 20 18 21 21 23 25 33 30 28 25 25 18 15 17 16 12 9 10 17 18
19 21 22 21 24 22 25 24 22 21 16 14 12 12 12 13 15 15 16 19 20 22 21 31 29 31 27 27 18 8 11 16 13 16 17 17 17 12 26 20 26 33 32 27 25 27 17 22 13 12 9 15 16 17
22 23 23 22 23 22 22 20 18 16 15 12 12 11 12 14 15 16 15 15 17 16 17 19 18 24 30 30 25 19 7 8 14 24 14 11 11 6 20 21 21 26 23 28 24 13 17 17 12 14 14 16 16 16
26 26 26 25 24 23 22 20 16 13 13 11 10 10 11 13 15 15 15 15 14 13 11 5 15 19 29 30 31 30 21 23 13 24 14 12 16 13 15 11 16 22 24 23 14 12 15 18 17 17 16 18 18 19
26 24 24 22 20 18 16 14 11 11 12 11 9 10 10 11 13 13 13 14 14 16 14 16 12 13 22 29 29 32 33 29 23 18 18 18 16 15 17 11 17 11 17 26 20 20 16 22 23 21 20 20 22 23
25 23 21 19 17 14 13 12 11 10 9 10 10 9 9 10 11 11 10 15 16 15 14 3 9 8 11 20 28 32 32 29 26 16 16 16 19 13 16 26 21 15 17 15 17 19 19 17 21 22 24 23 25 24
22 20 18 15 13 10 10 9 8 8 7 8 9 9 8 9 11 16 16 13 16 15 11 3 4 8 15 12 17 21 27 22 18 19 20 17 18 20 20 25 22 24 18 21 18 9 14 17 18 22 25 24 26 28
19 16 14 12 10 9 8 6 5 8 8 9 11 8 5 9 9 7 14 12 13 15 13 4 6 8 10 12 13 18 19 20 20 21 17 20 22 18 24 27 25 20 22 22 21 16 15 15 20 23 25 28 31 30
17 15 12 10 8 6 7 9 6 5 6 7 8 5 5 9 10 12 12 12 12 14 11 10 8 9 9 13 14 15 17 22 18 24 25 20 27 32 26 24 22 22 17 17 22 21 19 22 23 28 30 31 35 27
16 14 11 9 8 7 6 7 7 7 7 3 3 7 7 8 8 8 9 9 9 13 16 14 13 5 8 15 17 17 17 21 22 29 18 33 32 31 29 19 27 30 27 22 20 22 22 26 30 28 31 32 29 25
17 15 12 10 9 8 7 6 5 5 5 3 6 8 6 9 10 7 4 6 5 3 9 13 20 14 10 14 18 17 15 17 22 24 29 31 38 39 33 31 28 31 32 29 27 24 25 25 31 29 29 27 28 25
15 13 11 9 9 8 7 7 4 3 1 5 8 9 14 11 5 5 5 5 6 6 5 5 9 20 14 15 13 11 14 9 14 20 29 39 38 30 33 35 30 35 34 33 23 25 27 28 27 31 27 29 27 23
15 15 13 12 11 9 5 3 3 1 3 9 9 10 7 5 8 7 9 7 7 6 14 15 10 10 16 12 12 10 9 16 10 23 31 32 23 31 27 27 34 37 38 30 26 26 30 31 35 32 27 26 24 22
14 14 14 12 11 9 8 6 3 3 9 12 9 10 8 7 8 9 11 10 10 8 8 11 13 14 14 14 11 9 16 11 23 19 26 23 22 22 32 31 39 34 31 27 30 35 35 31 30 27 26 24 23 22
16 15 14 13 12 10 7 4 1 5 11 7 7 6 13 10 10 10 15 12 16 13 11 11 15 17 17 14 14 10 8 12 15 25 22 16 19 29 36 33 36 26 30 36 39 34 31 32 30 28 26 24 22 19
16 16 15 12 11 12 12 9 3 6 11 10 12 11 10 13 13 17 18 18 16 21 23 18 15 11 15 11 13 21 14 11 14 14 17 18 20 24 29 29 30 30 36 34 33 33 33 30 27 25 23 21 19 20
16 15 14 14 14 15 15 16 11 9 7 8 12 14 14 15 15 15 21 19 19 23 22 16 12 12 12 17 21 24 17 17 14 15 16 26 28 28 30 28 31 32 37 37 36 33 30 28 26 23 20 20 21 19
18 16 15 17 16 16 19 14 8 6 10 9 8 5 10 8 2 3 9 20 25 23 25 26 22 18 15 17 23 27 30 24 23 20 29 25 25 26 29 33 35 39 39 36 33 32 29 25 22 21 21 20 18 18
17 17 16 15 15 16 19 10 11 9 7 11 5 3 4 11 13 5 5 9 18 17 18 26 20 27 22 22 19 21 32 30 25 23 29 32 25 27 34 31 38 41 38 34 33 30 26 22 20 18 17 18 19 17
16 16 13 13 12 13 10 12 14 11 9 10 7 2 5 10 3 4 6 15 14 16 20 19 25 28 22 26 22 23 30 30 23 22 28 33 28 25 32 38 43 41 37 33 31 28 25 23 20 15 19 18 15 15
13 11 13 12 9 7 7 11 11 14 10 9 9 4 3 4 2 2 5 5 4 6 10 13 12 13 16 14 15 14 21 20 19 19 20 24 28 27 33 39 38 40 38 38 35 27 26 22 20 24 18 16 17 16
13 11 12 11 9 6 9 15 12 12 8 7 5 2 2 3 5 8 10 11 5 5 6 7 3 10 15 15 16 17 19 18 16 15 20 29 34 29 28 26 25 23 24 23 20 17 18 14 18 18 18 16 15 15
11 9 8 10 7 9 8 14 15 10 8 6 5 5 3 2 5 7 6 8 9 7 9 6 7 16 17 18 17 18 17 18 19 18 25 28 31 31 30 28 22 14 18 24 20 19 19 22 20 19 17 16 14 13
9 8 6 8 6 9 12 13 10 12 12 9 5 7 4 5 7 5 8 10 11 8 9 11 16 16 17 20 20 19 17 17 19 20 26 31 33 32 29 27 21 19 19 17 22 23 21 19 17 16 15 14 13 12
6 6 4 8 7 9 9 10 13 11 7 7 7 5 3 5 6 7 14 11 10 11 8 8 12 16 21 24 25 23 17 13 16 20 20 19 21 23 24 22 25 27 25 21 19 16 14 14 14 14 13 12 11 9
3 5 5 6 5 7 10 10 11 12 11 10 8 4 5 7 7 5 12 12 12 7 6 5 10 12 22 28 27 25 25 21 16 17 17 16 19 25 28 27 26 25 24 22 20 18 15 17 13 12 12 10 8 8
2 3 5 10 11 9 10 11 13 13 9 7 6 3 6 5 6 7 8 13 10 15 18 15 16 24 24 27 24 25 27 24 22 20 19 20 18 16 15 15 16 13 13 13 16 16 13 12 11 11 10 10 9 10
0 4 7 7 9 11 13 13 9 7 4 5 2 3 5 6 9 8 13 14 16 22 21 20 19 24 29 28 26 25 24 21 19 19 16 15 12 12 11 9 9 11 12 11 11 10 10 10 10 10 9 9 9 9
3 3 4 9 10 10 9 9 9 12 13 14 16 17 14 10 9 10 11 13 20 21 21 27 25 23 21 18 20 20 17 16 15 13 12 12 12 10 10 10 8 9 10 10 9 10 10 9 9 8 8 8 8 11
1 2 5 7 8 6 6 9 10 12 13 13 14 12 9 12 16 14 15 17 18 20 19 17 20 20 18 16 19 20 16 11 7 6 9 7 6 6 6 6 7 6 6 6 5 5 5 6 6 8 11 12 11 9
1 1 2 2 3 6 9 8 10 11 12 9 9 9 11 13 12 12 13 12 17 23 21 16 15 18 12 13 15 10 11 11 14 12 9 6 7 6 5 4 5 5 4 4 5 6 8 9 11 12 11 9 9 9
2 4 5 4 6 10 12 11 9 7 7 8 8 9 9 7 7 7 10 13 14 15 13 13 13 8 9 11 7 7 6 5 3 6 8 5 3 3 2 2 2 2 3 4 6 6 6 6 7 8 9 11 11 11
5 6 7 6 7 7 4 5 5 6 5 5 7 7 5 4 3 6 7 9 7 2 6 6 5 4 5 8 7 7 5 6 3 3 4 4 3 3 2 3 5 6 6 6 7 8 9 9 9 11 12 11 10 11
Wind_Direction
308 300 289 283 297 296 296 296 296 298 286 276 265 254 243 234 224 215 212 210 209 202 222 216 204 191 192 178 185 225 224 212 194 208 209 208 215 195 205 203 200 202 201 214 216 208 219 173 161 192 216 157 172 176
307 293 296 292 304 302 301 298 293 289 283 271 259 248 239 231 224 217 214 212 214 214 198 226 217 213 212 196 182 145 193 172 199 196 206 219 222 201 205 198 203 206 208 207 211 218 219 179 172 176 189 173 170 176
314 302 301 297 303 301 303 297 292 287 281 272 262 245 235 229 224 218 219 213 214 222 229 240 225 223 221 219 211 197 206 205 198 182 184 200 210 220 198 206 191 203 204 219 219 188 174 176 183 175 175 174 172 180
315 311 307 303 301 298 299 295 285 270 266 267 258 246 227 221 221 215 214 212 208 212 209 234 222 230 219 216 213 204 200 204 203 206 202 202 203 220 209 241 209 207 207 204 200 186 186 190 183 176 177 183 179 184
319 314 311 309 305 301 294 287 280 275 273 264 255 242 232 220 217 214 209 210 209 199 184 200 225 233 224 216 214 212 219 222 219 220 218 221 222 242 233 237 211 197 199 207 206 216 204 202 199 189 186 200 188 216
321 319 316 314 311 303 293 284 276 265 257 263 260 243 223 216 211 205 207 213 209 212 216 182 217 232 209 218 214 216 215 220 223 226 220 211 211 240 226 223 212 208 213 206 218 227 212 211 210 198 199 185 210 217
329 327 324 321 321 316 309 298 285 264 265 245 251 254 233 214 202 197 199 205 208 208 210 250 272 247 203 200 212 216 216 215 220 226 224 210 226 237 226 225 218 219 228 215 200 189 188 206 221 199 193 189 213 227
339 338 338 338 344 340 337 319 249 260 251 251 256 255 232 206 192 185 199 194 195 202 198 181 212 207 201 203 198 205 212 214 221 217 224 220 216 235 233 227 221 221 233 233 213 209 222 205 189 189 188 216 226 230
346 342 342 343 340 339 331 332 321 307 289 271 261 244 194 185 182 202 191 198 197 195 190 183 170 173 203 186 194 207 204 220 219 229 227 216 219 223 232 214 217 219 230 225 221 221 214 197 193 182 200 217 230 226
354 353 345 341 340 331 317 316 332 321 317 300 193 144 125 194 180 174 183 200 220 221 217 202 190 170 169 189 191 202 206 211 223 232 223 225 224 227 226 223 218 207 204 213 213 208 201 185 190 225 211 221 224 221
359 358 358 352 348 344 335 330 339 10 30 110 144 139 174 162 154 152 147 183 221 273 262 223 207 201 222 182 199 209 216 216 226 225 215 224 229 226 220 225 223 209 213 213 215 211 216 228 215 204 205 224 220 222
8 8 10 360 356 355 349 346 347 101 268 181 163 151 146 139 145 170 199 205 216 209 233 217 223 207 194 210 207 198 206 224 228 219 221 227 228 232 235 229 213 212 213 215 206 198 199 191 191 197 216 219 216 224
14 16 14 12 10 6 11 17 32 44 152 147 146 144 164 204 209 197 192 194 201 216 207 198 182 186 198 209 214 208 217 226 235 226 225 231 230 222 226 225 215 210 213 210 191 191 189 184 201 213 211 216 223 231
31 29 28 27 27 27 20 21 38 130 155 152 174 204 203 212 214 224 224 195 214 213 203 198 194 174 192 204 211 214 226 234 230 233 231 230 231 212 216 219 210 212 209 185 181 186 197 211 208 202 207 218 226 233
21 19 18 19 20 18 17 23 76 175 179 177 209 231 235 220 237 236 220 219 216 227 236 218 201 200 188 204 206 212 218 222 235 236 228 220 223 212 213 213 211 201 176 182 193 208 204 201 202 207 214 223 228 231
15 14 9 2 359 359 356 348 312 216 214 229 236 238 242 240 237 239 241 234 219 224 231 233 222 204 207 208 208 210 223 226 232 235 219 218 229 212 211 214 209 193 186 194 195 195 197 200 206 212 219 220 226 230
357 357 355 351 346 339 338 331 311 286 237 234 281 296 277 265 259 250 238 236 225 227 230 218 216 209 206 218 219 215 216 223 239 199 204 212 229 224 208 204 197 196 182 184 191 194 199 203 205 208 209 214 219 225
348 345 347 341 334 334 334 333 309 283 292 319 329 347 321 327 115 39 133 189 201 207 207 213 216 220 218 228 228 227 231 249 235 213 202 205 212 207 201 198 195 186 185 187 189 193 195 198 198 204 206 210 220 224
342 338 339 343 347 343 334 334 346 327 7 51 39 349 64 27 61 27 108 140 175 190 210 218 223 225 245 238 225 218 225 238 234 239 220 218 224 210 206 204 196 186 185 188 192 192 187 189 194 200 212 220 221 222
346 342 342 347 347 352 345 350 7 14 26 33 39 3 12 46 2 331 186 168 185 183 203 218 236 251 250 235 240 223 227 223 236 224 215 217 210 199 202 195 191 185 186 186 185 184 181 182 184 198 226 220 224 233
347 350 351 351 351 9 7 355 2 360 2 10 359 326 307 338 356 318 354 295 295 231 223 226 256 248 233 197 175 173 205 208 194 185 185 187 182 191 197 194 190 188 181 183 187 183 189 203 220 207 210 222 228 232
336 334 341 346 2 6 15 356 349 351 340 2 3 8 316 306 5 355 353 6 20 3 306 312 260 49 97 113 128 148 162 167 167 179 175 178 176 169 164 171 173 174 176 186 186 197 206 182 193 204 216 223 229 236
334 333 332 348 3 0 356 8 0 22 21 20 40 43 45 335 330 334 6 1 19 63 353 55 59 92 111 114 125 132 136 149 157 165 175 175 180 178 176 174 177 194 222 208 235 210 195 205 205 214 219 224 232 231
334 345 341 347 353 0 360 7 4 1 22 18 38 57 77 94 47 61 47 29 47 17 29 67 106 118 130 127 133 139 145 150 149 154 160 166 171 174 190 208 234 217 208 205 191 186 187 196 206 214 217 228 228 218
3 12 23 15 6 334 336 2 357 7 24 44 64 49 63 64 72 48 45 27 29 54 87 81 91 127 131 128 118 109 107 129 146 148 150 168 181 180 179 186 195 189 174 168 166 178 190 203 216 222 216 213 209 209
11 21 3 2 353 351 21 21 21 20 30 26 30 44 78 69 65 42 31 39 39 54 29 113 120 146 143 129 123 116 112 105 114 144 147 167 182 186 185 168 164 166 159 162 171 178 201 221 210 207 208 208 212 218
34 28 57 71 51 39 22 28 27 24 24 29 60 80 39 57 55 50 60 71 85 96 78 96 121 149 143 128 126 125 124 122 119 111 109 110 115 131 136 125 137 159 174 180 195 203 198 196 198 208 211 209 209 209
140 96 59 39 17 20 29 28 9 18 45 48 60 74 64 84 69 111 107 81 94 124 118 115 123 122 123 117 130 130 127 127 131 124 115 108 103 107 130 158 152 163 162 167 175 182 189 198 200 206 210 207 203 198
115 74 31 21 17 20 11 41 59 87 88 89 88 85 78 90 98 104 114 111 115 128 127 115 115 118 124 128 128 126 124 123 125 123 128 126 126 138 153 158 158 161 166 168 174 178 185 190 193 193 196 195 213 229
110 79 47 11 14 40 52 88 91 94 97 87 71 78 78 99 78 90 128 121 131 127 127 136 133 129 128 128 136 124 109 92 86 95 125 135 142 143 141 143 149 161 171 182 195 203 211 220 219 222 219 219 224 233
176 82 63 16 4 101 97 94 70 72 79 81 85 79 79 106 84 98 106 108 136 140 142 147 150 143 139 146 156 141 142 145 147 148 143 146 138 151 152 155 163 186 218 231 239 231 228 223 218 216 218 214 215 210
132 115 114 69 70 120 108 80 78 79 78 73 71 64 73 70 82 103 123 117 111 115 130 143 151 144 166 165 159 178 166 157 163 158 136 150 177 159 163 178 200 230 250 243 248 246 250 222 211 216 225 244 239 245
137 127 119 101 89 86 113 110 100 83 82 97 106 97 98 114 101 116 133 135 115 93 153 154 163 152 188 183 191 205 210 217 210 200 198 225 245 247 235 255 256 262 261 236 222 224 240 226 221 236 234 228 240 249